Regional Weather Roundup
Issued by NWS Sterling, VA

Home | Current Version | Previous Version | Graphics & Text | Print | Product List | Glossary On
Versions: 1 2 3 4 5 6 7 8 9 10 11 12 13 14 15 16 17 18 19 20 21 22 23 24 25 26 27 28 29 30 31 32 33 34 35 36 37 38 39 40 41 42 43 44 45 46 47 48 49 50
000
ASUS41 KLWX 170510
RWRLWX

REGIONAL WEATHER ROUNDUP
NATIONAL WEATHER SERVICE BALTIMORE MD/WASHINGTON DC
100 AM EDT WED SEP 17 2014

Note: "FAIR" indicates few or no clouds below 12,000 feet
with no significant weather and/or obstructions to visibility.
 TC=TEMPERATURE CELSIUS

 * =Non NWS site. Station does not report precipitation (e.g. rain,
    snow, etc.), thunder, or fog.

DCZ001-MDZ009-015-VAZ040>042-051-053>054-170600-
WASHINGTON METRO

CITY           SKY/WX    TMP DP  RH WIND       PRES   REMARKS
WASHINGTON NAT PTCLDY    64  51  62 NW6       30.05S
DULLES         CLEAR     54  50  86 NW5       30.05S
ANDREWS AFB    CLEAR     55  50  82 N7        30.04R
QUANTICO       CLEAR     60  55  83 NW8       30.05S
COLLEGE PARK*  CLEAR     55  55 100 CALM      30.04S
LEESBURG*      CLEAR     54  54 100 CALM      30.06S
MANASSAS*      CLEAR     54  54 100 CALM      30.05F
GAITHERSBURG*  CLEAR     52  50  93 CALM      30.09S

$$

MDZ006>007-011-014-170600-
BALTIMORE METRO

CITY           SKY/WX    TMP DP  RH WIND       PRES   REMARKS
BWI AIRPORT    CLEAR     55  52  89 CALM      30.04S
MD SCIENCE CTR   N/A     64  52  64 MISG      30.05S
MARTIN STATE   CLEAR     55  54  94 CALM      30.05S
ANNAPOLIS      CLEAR     63  58  83 NW3       30.03S
FORT MEADE*    CLEAR     50  48  93 CALM      30.06S

$$

MDZ012-015-019>023-170600-
MARYLAND EASTERN SHORE

CITY           SKY/WX    TMP DP  RH WIND       PRES   REMARKS
OCEAN CITY     PTCLDY    61  57  87 NW3       30.01S
SALISBURY      PTCLDY    62  56  80 CALM      30.01F
BAY BRIDGE AP*   N/A     63  52  67 NE3       30.03F
EASTON*        CLEAR     59  57  91 CALM      30.06S

$$

MDZ017>025-170600-
SOUTHERN MARYLAND

CITY           SKY/WX    TMP DP  RH WIND       PRES   REMARKS
PATUXENT RIVER PTCLDY    66  55  67 NE8       30.02R
ST INIGOES     CLOUDY    64  54  69 N3        30.02R
LEONARDTOWN*   CLEAR     55  54  94 CALM      30.04S

$$

MDZ003>005-170600-
NORTH CENTRAL MARYLAND

CITY           SKY/WX    TMP DP  RH WIND       PRES   REMARKS
FREDERICK*     CLEAR     54  52  94 SW3       30.08S
HAGERSTOWN APT CLEAR     58  49  72 CALM      30.06S
WESTMINSTER*   PTCLDY    55  52  88 CALM      30.06S

$$

MDZ501>502-170600-
WESTERN MARYLAND

CITY           SKY/WX    TMP DP  RH WIND       PRES   REMARKS
OAKLAND*       CLEAR     50  50 100 CALM      30.11S
CUMBERLAND*    CLEAR     50  46  87 CALM      30.12S

$$

VAZ025>031-170600-
SHENANDOAH VALLEY

CITY           SKY/WX    TMP DP  RH WIND       PRES   REMARKS
WINCHESTER*    CLEAR     52  50  93 CALM      30.07S
STAUNTON*      CLOUDY    58  50  73 CALM      30.10R

$$

WVZ021-048>050-054>055-170600-
EASTERN WEST VIRGINIA PANHANDLE

CITY           SKY/WX    TMP DP  RH WIND       PRES   REMARKS
MARTINSBURG    CLEAR     52  47  83 SW3       30.07S
PETERSBURG*    CLEAR     48  47  94 CALM      30.11S

$$

VAZ036>039-050-170600-
CENTRAL FOOTHILLS

CITY           SKY/WX    TMP DP  RH WIND       PRES   REMARKS
CHARLOTTESVILL CLEAR     60  52  74 CALM      30.05S
ORANGE*        CLEAR     59  52  77 NW3       30.07S

$$

VAZ055>057-170600-
NORTH AND CENTRAL PIEDMONT

CITY           SKY/WX    TMP DP  RH WIND       PRES   REMARKS
FREDERICKSBRG* CLEAR     58  55  88 NW3       30.04S
STAFFORD*      CLEAR     54  54 100 CALM      30.09R

$$

NCZ024-NYZ072-PAZ021-071-VAZ022-071-170600-
OTHER REGIONAL OBSERVATIONS

CITY           SKY/WX    TMP DP  RH WIND       PRES   REMARKS
NEW YORK CITY  CLEAR     62  49  62 N3        30.05S
PHILADELPHIA   PTCLDY    61  50  67 CALM      30.04S
PITTSBURGH     PTCLDY    54  50  86 CALM      30.09S
ROANOKE        CLOUDY    65  55  70 NE5       30.08S
RICHMOND       MOCLDY    67  56  67 N5        30.02S
RALEIGH        CLOUDY    70  66  87 N3        29.98S

$$

ANZ530>537-170600-
MARINE OBSERVATIONS

STATION/POSITION TIME  TEMP    WIND        PRES
                       AIR SEA DIR/SP/G
                 (UTC) (F)     (DEG/KT/KT) (MB)
THOMAS PT LIGHT  0500   68 74   60/ 11/ 13 1017.7F
BALT KEY BRIDGE  0500   64     340/  8/  9 1016.9S
COVE POINT       0500   68      60/ 12/ 14 1016.6R
LEWISETTA        0500   71 74   40/  7/ 11 1016.0F
SOLOMONS ISLAND  0500      76                N/A
PINEY POINT      0500           60/  4/  5   N/A

$$



USA.gov is the U.S. government's official web portal to all federal, state and local government web resources and services.